VR2R-13 Weather Reports


Display with metric or nautical units.
time (UTC)temp
F
wind
direction
speed
MPH
gust
MPH
rain 1hr
in
rain 24hr
in
rain mn
in
humidity
%
barometer
mb
20260902004631 67 22 9.0 20.0 0.00 0.00 0.00 98 903.1
20260902004530 67 19 11.0 20.0 0.00 0.00 0.00 98 903.2
20260902004032 67 14 8.0 13.0 0.00 0.00 0.00 98 903.1
20260902004030 67 360 8.0 13.0 0.00 0.00 0.00 98 903.1
20260902003530 67 344 1.0 13.0 0.00 0.00 0.00 98 903.1
20260902003431 67 11 1.0 13.0 0.00 0.00 0.00 98 903.2
20260902003030 67 4 11.0 19.0 0.00 0.00 0.00 98 903.2
20260902002831 67 355 8.0 19.0 0.00 0.00 0.00 98 903.1
20260902002530 67 23 8.0 16.0 0.00 0.00 0.00 98 903.1
20260902002231 67 351 8.0 17.0 0.00 0.00 0.00 98 903.1
20260902002030 67 360 9.0 17.0 0.00 0.00 0.00 98 903.1
20260902001631 67 8 8.0 17.0 0.00 0.00 0.00 98 903.0
20260902001530 67 354 9.0 17.0 0.00 0.00 0.00 98 902.9
20260902001031 67 12 9.0 19.0 0.00 0.00 0.00 98 902.9
20260902000529 67 360 10.0 19.0 0.00 0.00 0.00 98 902.9
20260902000431 67 19 8.0 19.0 0.00 0.00 0.00 98 902.9
20260902000030 67 360 7.0 19.0 0.00 0.00 0.00 98 902.9
20260901235831 67 4 14.0 19.0 0.00 0.00 0.00 98 902.8
20260901235231 67 3 10.0 19.0 0.00 0.00 0.00 98 902.7
20260901235031 67 356 7.0 19.0 0.00 0.00 0.00 98 902.8
20260901234631 67 351 11.0 19.0 0.00 0.00 0.00 98 902.6
20260901234529 67 357 10.0 17.0 0.00 0.00 0.00 98 902.6
20260901234031 67 24 10.0 21.0 0.00 0.00 0.00 98 902.6
20260901233529 68 32 11.0 21.0 0.00 0.00 0.00 98 902.5
20260901233431 68 7 13.0 21.0 0.00 0.00 0.00 98 902.5
20260901233029 68 360 11.0 19.0 0.00 0.00 0.00 98 902.5
20260901232831 68 357 12.0 19.0 0.00 0.00 0.00 98 902.5
20260901232529 68 355 12.0 19.0 0.00 0.00 0.00 98 902.2
20260901232231 68 6 11.0 19.0 0.00 0.00 0.00 98 902.5
20260901232029 68 360 9.0 19.0 0.00 0.00 0.00 98 902.4
20260901231631 68 31 10.0 19.0 0.00 0.00 0.00 98 902.5
20260901231529 68 6 10.0 19.0 0.00 0.00 0.00 98 902.4
20260901231031 68 360 10.0 19.0 0.00 0.00 0.00 98 902.3
20260901231029 68 12 10.0 19.0 0.00 0.00 0.00 98 902.3
20260901230529 68 1 9.0 19.0 0.00 0.00 0.00 98 901.9
20260901230430 68 60 10.0 21.0 0.00 0.00 0.00 98 902.2
20260901230029 68 24 10.0 21.0 0.00 0.00 0.00 98 902.0
20260901225830 68 40 9.0 21.0 0.00 0.00 0.00 98 902.0
20260901225529 68 34 10.0 22.0 0.00 0.00 0.00 98 902.1
20260901225230 68 350 11.0 22.0 0.00 0.00 0.00 98 902.0
20260901225029 68 7 11.0 22.0 0.00 0.00 0.00 98 901.8
20260901224630 68 18 6.0 19.0 0.00 0.00 0.00 98 901.9
20260901224031 68 342 10.0 23.0 0.00 0.00 0.00 98 901.8
20260901224029 68 315 10.0 23.0 0.00 0.00 0.00 98 901.7
20260901223529 68 356 11.0 20.0 0.00 0.00 0.00 98 901.6
20260901223430 68 342 10.0 20.0 0.00 0.00 0.00 98 901.9
20260901223029 68 345 12.0 19.0 0.00 0.00 0.00 98 901.6
20260901222830 68 4 7.0 19.0 0.00 0.00 0.00 98 901.9
20260901222529 67 32 12.0 19.0 0.00 0.00 0.00 98 901.9
20260901222230 67 12 6.0 19.0 0.00 0.00 0.00 98 901.8
20260901222029 68 350 10.0 21.0 0.00 0.00 0.00 98 901.9
20260901221630 68 8 11.0 21.0 0.00 0.00 0.00 98 901.8
20260901221529 68 360 12.0 21.0 0.00 0.00 0.00 98 901.8
20260901221031 68 38 11.0 21.0 0.00 0.00 0.00 98 901.7
20260901221029 68 29 11.0 21.0 0.00 0.00 0.00 98 901.7
20260901220529 67 1 14.0 20.0 0.00 0.00 0.00 98 901.6
20260901220430 68 2 12.0 20.0 0.00 0.00 0.00 98 901.5
20260901220029 68 11 14.0 23.0 0.00 0.00 0.00 98 901.6
20260901215830 68 360 6.0 23.0 0.00 0.00 0.00 98 901.4
20260901215529 68 360 13.0 22.0 0.00 0.02 0.00 98 901.6
20260901215230 68 12 11.0 22.0 0.00 0.02 0.00 98 901.6
20260901215029 68 355 11.0 19.0 0.00 0.02 0.00 98 901.6
20260901214630 68 35 10.0 19.0 0.00 0.02 0.00 98 901.7
20260901214529 68 2 10.0 19.0 0.00 0.02 0.00 98 901.6
20260901214030 68 356 11.0 19.0 0.00 0.02 0.00 98 901.7
20260901214028 68 3 11.0 19.0 0.00 0.02 0.00 98 901.7
20260901213528 68 12 10.0 17.0 0.00 0.02 0.00 98 901.6
20260901213430 68 332 9.0 16.0 0.00 0.02 0.00 98 901.6
20260901213028 67 38 11.0 17.0 0.00 0.02 0.00 98 901.7
20260901212830 68 360 8.0 17.0 0.00 0.02 0.00 98 901.7
20260901212528 68 27 10.0 17.0 0.00 0.02 0.00 98 901.7
20260901212230 68 313 11.0 17.0 0.00 0.02 0.00 98 901.7
20260901211528 68 334 5.0 12.0 0.00 0.02 0.00 98 901.9
20260901211030 68 13 6.0 17.0 0.01 0.02 0.00 98 901.9
20260901211028 68 19 6.0 17.0 0.01 0.02 0.00 98 901.9
20260901210528 68 358 6.0 17.0 0.01 0.02 0.00 98 901.9
20260901210430 68 14 6.0 17.0 0.01 0.02 0.00 98 902.0
20260901210028 68 360 3.0 12.0 0.02 0.02 0.00 98 901.9
20260901205830 68 337 5.0 12.0 0.02 0.02 0.00 98 901.9
20260901205528 68 53 5.0 12.0 0.02 0.02 0.00 98 901.8
20260901205229 68 306 5.0 12.0 0.02 0.02 0.00 98 901.8
20260901205028 68 42 4.0 14.0 0.02 0.02 0.00 98 901.9
20260901204629 68 358 4.0 14.0 0.02 0.02 0.00 98 901.9
20260901204528 68 352 3.0 14.0 0.02 0.02 0.00 98 901.9
20260901204030 68 360 5.0 10.0 0.02 0.02 0.00 98 901.9
20260901204028 68 358 5.0 10.0 0.02 0.02 0.00 98 901.9
20260901203528 68 331 5.0 9.0 0.02 0.02 0.00 98 901.7
20260901203429 68 13 5.0 9.0 0.02 0.02 0.00 98 901.8
20260901203028 68 348 4.0 10.0 0.02 0.02 0.00 98 901.7
20260901202829 68 359 5.0 10.0 0.02 0.02 0.00 98 901.7
20260901202528 68 343 4.0 10.0 0.02 0.02 0.00 98 901.7
20260901202229 68 29 6.0 10.0 0.02 0.02 0.00 98 901.8
20260901202028 68 315 5.0 11.0 0.02 0.02 0.00 98 901.7
20260901201629 68 311 4.0 12.0 0.02 0.02 0.00 98 901.7
20260901201528 68 322 5.0 18.0 0.02 0.02 0.00 98 901.8
20260901201029 68 68 5.0 18.0 0.01 0.01 0.00 98 901.7
20260901200528 68 26 7.0 15.0 0.01 0.01 0.00 98 901.6
20260901200429 68 350 6.0 15.0 0.01 0.01 0.00 98 901.7
20260901200028 68 9 6.0 17.0 0.00 0.00 0.00 98 901.7
20260901195829 68 360 5.0 17.0 0.00 0.00 0.00 98 901.6
20260901195528 68 42 7.0 17.0 0.00 0.00 0.00 98 901.6
20260901195229 68 41 8.0 17.0 0.00 0.00 0.00 98 901.6
20260901195027 68 96 7.0 15.0 0.00 0.00 0.00 98 901.6
20260901194629 68 5 6.0 15.0 0.00 0.00 0.00 98 901.7
20260901194528 68 2 6.0 15.0 0.00 0.00 0.00 98 901.6
20260901194029 68 46 6.0 18.0 0.00 0.00 0.00 98 901.6
20260901193527 68 12 5.0 18.0 0.00 0.00 0.00 98 901.7
20260901193429 68 7 6.0 18.0 0.00 0.00 0.00 98 901.7
20260901193027 68 4 6.0 15.0 0.00 0.00 0.00 98 901.7
20260901192829 68 18 7.0 15.0 0.00 0.00 0.00 98 901.7
20260901192528 68 317 1.0 7.0 0.00 0.00 0.00 98 901.6
20260901192229 68 17 6.0 14.0 0.00 0.00 0.00 98 901.7
20260901192027 68 352 7.0 14.0 0.00 0.00 0.00 98 901.7
20260901191629 68 16 5.0 13.0 0.00 0.00 0.00 98 901.7
20260901191527 68 3 1.0 7.0 0.00 0.00 0.00 98 901.8
20260901191029 68 360 6.0 14.0 0.00 0.00 0.00 98 901.7
20260901191027 68 329 6.0 14.0 0.00 0.00 0.00 98 901.7
20260901190527 68 360 6.0 13.0 0.00 0.00 0.00 98 901.9
20260901190428 68 26 6.0 13.0 0.00 0.00 0.00 98 901.8
20260901190027 68 360 7.0 13.0 0.00 0.00 0.00 98 901.8
20260901185828 68 325 3.0 11.0 0.00 0.00 0.00 98 901.8
20260901185527 68 360 4.0 8.0 0.00 0.00 0.00 98 901.8
20260901185228 68 347 4.0 11.0 0.00 0.00 0.00 98 901.8
20260901185027 68 23 4.0 11.0 0.00 0.00 0.00 98 901.8
20260901184628 68 341 5.0 15.0 0.00 0.00 0.00 98 901.8
20260901184527 68 360 5.0 15.0 0.00 0.00 0.00 98 901.9
20260901184029 68 7 7.0 15.0 0.00 0.00 0.00 98 901.9
20260901184027 68 23 7.0 15.0 0.00 0.00 0.00 98 901.9
20260901183527 68 19 9.0 14.0 0.00 0.00 0.00 98 901.8
20260901183428 68 37 9.0 14.0 0.00 0.00 0.00 98 901.9
20260901183027 68 13 8.0 17.0 0.01 0.03 0.00 98 901.8
20260901182828 68 29 8.0 17.0 0.01 0.03 0.00 98 901.9
20260901182527 68 26 9.0 15.0 0.01 0.03 0.00 98 901.9
20260901182228 68 45 8.0 15.0 0.01 0.03 0.00 98 901.9
20260901182027 68 348 8.0 14.0 0.01 0.03 0.00 98 902.0
20260901181628 68 28 7.0 14.0 0.01 0.03 0.00 98 902.0
20260901181527 68 310 6.0 14.0 0.01 0.03 0.00 98 902.0
20260901181029 69 334 6.0 14.0 0.01 0.03 0.00 98 902.1
20260901181027 69 19 6.0 14.0 0.01 0.03 0.00 98 902.1
20260901180527 69 13 5.0 14.0 0.01 0.03 0.00 98 902.1
20260901180428 69 4 7.0 14.0 0.01 0.03 0.00 98 902.0
20260901180027 69 9 8.0 14.0 0.01 0.03 0.00 98 902.0
20260901175828 69 360 9.0 14.0 0.01 0.03 0.00 98 902.0
20260901175527 69 355 8.0 12.0 0.01 0.03 0.00 98 902.1
20260901175228 69 40 7.0 12.0 0.01 0.03 0.00 98 902.1
20260901175027 69 6 8.0 12.0 0.01 0.03 0.00 98 902.1
20260901174628 69 10 5.0 10.0 0.00 0.02 0.00 98 902.2
20260901174030 69 329 3.0 11.0 0.02 0.02 0.00 98 902.2
20260901174028 69 311 3.0 11.0 0.02 0.02 0.00 98 902.2
20260901173527 69 341 6.0 11.0 0.02 0.02 0.00 98 902.2
20260901173428 69 12 5.0 11.0 0.02 0.02 0.00 98 902.2
20260901173027 69 341 3.0 16.0 0.02 0.02 0.00 98 902.3
20260901172828 69 12 5.0 16.0 0.02 0.02 0.00 98 902.3
20260901172526 69 12 6.0 16.0 0.02 0.02 0.00 98 902.2
20260901172026 70 33 9.0 16.0 0.02 0.02 0.00 98 902.3
20260901171628 70 38 7.0 16.0 0.02 0.02 0.00 98 902.3
20260901171526 70 64 8.0 16.0 0.02 0.02 0.00 98 902.4
20260901171028 70 58 8.0 13.0 0.02 0.02 0.00 98 902.5
20260901171026 70 63 8.0 13.0 0.02 0.02 0.00 98 902.5
20260901170526 70 58 7.0 13.0 0.02 0.02 0.00 98 902.6
20260901170428 70 24 7.0 13.0 0.02 0.02 0.00 98 902.6
20260901170026 70 27 6.0 12.0 0.02 0.02 0.00 98 902.6
20260901165828 70 61 7.0 13.0 0.02 0.02 0.00 98 902.6
20260901165526 70 36 7.0 13.0 0.02 0.02 0.00 98 902.6
20260901165228 70 51 7.0 15.0 0.02 0.02 0.00 98 902.6
20260901165026 70 30 8.0 15.0 0.02 0.02 0.00 98 902.6
20260901164628 70 42 7.0 15.0 0.02 0.02 0.00 98 902.6
20260901164526 70 50 8.0 15.0 0.02 0.02 0.00 98 902.6
20260901164028 70 47 6.0 13.0 0.00 0.00 0.00 99 902.6
20260901164026 70 55 6.0 13.0 0.00 0.00 0.00 99 902.6
20260901163526 70 66 3.0 9.0 0.00 0.00 0.00 99 902.7
20260901163427 70 72 0.0 8.0 0.00 0.00 0.00 99 902.7
20260901163026 70 59 9.0 14.0 0.00 0.00 0.00 98 902.6
20260901162828 70 27 7.0 14.0 0.00 0.00 0.00 99 902.6
20260901162526 70 88 7.0 14.0 0.00 0.00 0.00 99 902.7
20260901162227 70 65 8.0 14.0 0.00 0.00 0.00 98 902.7
20260901162026 70 26 9.0 14.0 0.00 0.00 0.00 98 902.8
20260901161627 70 34 7.0 13.0 0.00 0.00 0.00 99 902.8
20260901161526 70 34 7.0 11.0 0.00 0.00 0.00 99 902.7
20260901161028 70 50 7.0 13.0 0.00 0.00 0.00 99 902.9
20260901161026 70 71 7.0 13.0 0.00 0.00 0.00 99 902.9
20260901160526 70 22 6.0 12.0 0.00 0.00 0.00 99 902.9
20260901160427 70 30 7.0 12.0 0.00 0.00 0.00 99 902.9
20260901160026 70 82 2.0 6.0 0.00 0.00 0.00 99 903.0
20260901155827 70 56 5.0 13.0 0.00 0.00 0.00 99 903.0
20260901155526 70 67 8.0 13.0 0.00 0.00 0.00 99 902.9
20260901155227 70 61 5.0 13.0 0.00 0.00 0.00 99 903.0
20260901154627 70 59 7.0 11.0 0.00 0.00 0.00 99 903.0
20260901154526 70 62 6.0 9.0 0.00 0.00 0.00 99 902.9
20260901154026 70 66 0.0 5.0 0.00 0.00 0.00 99 902.9
20260901153525 70 94 6.0 13.0 0.00 0.00 0.00 99 902.8
20260901153427 70 42 6.0 13.0 0.00 0.00 0.00 99 902.8
20260901153025 70 35 6.0 13.0 0.00 0.00 0.00 99 902.8
20260901152827 70 76 8.0 13.0 0.00 0.00 0.00 98 902.8
20260901152525 70 9 7.0 13.0 0.00 0.00 0.00 99 902.7
20260901152227 70 33 9.0 13.0 0.00 0.00 0.00 99 902.8
20260901152026 70 29 7.0 11.0 0.00 0.00 0.00 99 902.7
20260901151627 70 74 8.0 19.0 0.02 0.02 0.00 99 902.7
20260901151525 70 32 8.0 19.0 0.02 0.02 0.00 99 902.7
20260901151027 70 37 12.0 19.0 0.02 0.02 0.00 98 902.7
20260901151025 70 39 12.0 19.0 0.02 0.02 0.00 98 902.7
20260901150525 70 52 9.0 15.0 0.02 0.02 0.00 99 902.7
20260901150427 70 53 9.0 15.0 0.01 0.01 0.00 99 902.6
20260901150026 70 65 0.0 8.0 0.00 0.00 0.00 99 902.7
20260901145827 70 65 8.0 14.0 0.02 0.02 0.00 99 902.7
20260901145525 70 43 7.0 14.0 0.01 0.01 0.00 99 902.7
20260901145227 70 71 7.0 14.0 0.01 0.01 0.00 99 902.7
20260901145025 70 72 7.0 14.0 0.01 0.01 0.00 99 902.8
20260901144627 70 71 7.0 14.0 0.00 0.00 0.00 99 902.8
20260901144525 70 65 7.0 11.0 0.00 0.00 0.00 99 902.7
20260901144027 70 44 3.0 9.0 0.00 0.00 0.00 99 902.7
20260901144025 70 42 3.0 9.0 0.00 0.00 0.00 99 902.7
20260901143525 70 324 1.0 9.0 0.00 0.00 0.00 99 902.7
20260901143427 70 13 5.0 11.0 0.00 0.00 0.00 99 902.8
20260901143025 70 46 9.0 15.0 0.01 0.01 0.00 99 902.7
20260901142826 70 32 9.0 15.0 0.00 0.00 0.00 99 902.7
20260901142525 70 60 8.0 13.0 0.00 0.00 0.00 99 902.7
20260901142226 70 44 9.0 13.0 0.00 0.00 0.00 99 902.7
20260901142025 70 49 7.0 13.0 0.00 0.00 0.00 99 902.6
20260901141626 70 38 0.0 9.0 0.00 0.00 0.00 99 902.7
20260901141525 70 57 5.0 10.0 0.00 0.00 0.00 99 902.7
20260901141027 70 41 8.0 16.0 0.00 0.00 0.00 99 902.5
20260901141025 70 10 8.0 16.0 0.00 0.00 0.00 99 902.4
20260901140525 70 37 7.0 16.0 0.18 0.18 0.00 99 902.5
20260901140426 70 38 7.0 17.0 0.16 0.16 0.00 99 902.4
20260901140025 70 59 10.0 17.0 0.15 0.15 0.00 99 902.5
20260901135826 70 80 10.0 17.0 0.15 0.15 0.00 99 902.4
20260901135525 70 64 12.0 17.0 0.14 0.14 0.00 99 902.4
20260901135226 70 45 11.0 17.0 0.13 0.13 0.00 99 902.4
20260901135025 70 38 12.0 17.0 0.13 0.13 0.00 99 902.4
20260901134626 70 42 10.0 15.0 0.13 0.13 0.00 99 902.4
20260901134525 70 76 9.0 15.0 0.11 0.11 0.00 99 902.5
20260901134026 70 44 6.0 13.0 0.06 0.06 0.00 99 902.4
20260901133525 70 360 4.0 12.0 0.01 0.01 0.00 99 902.2
20260901133426 70 26 1.0 6.0 0.00 0.00 0.00 99 902.3
20260901133025 70 93 4.0 14.0 0.05 0.05 0.00 99 902.1
20260901132826 70 97 7.0 16.0 0.03 0.03 0.00 99 902.0
20260901132524 70 28 4.0 16.0 0.02 0.02 0.00 99 901.9
20260901132226 70 16 6.0 16.0 0.02 0.02 0.00 99 902.0
20260901132025 70 34 9.0 19.0 0.01 0.01 0.00 99 901.9
20260901131626 70 37 5.0 19.0 0.01 0.01 0.00 99 901.8
20260901131524 70 138 3.0 19.0 0.01 0.01 0.00 99 901.8
20260901131025 70 342 6.0 14.0 0.00 0.00 0.00 99 901.8
20260901130426 70 13 8.0 21.0 0.02 0.02 0.00 99 901.8
20260901130024 70 321 8.0 21.0 0.01 0.01 0.00 99 901.7
20260901125826 70 94 6.0 20.0 0.00 0.00 0.00 99 901.7
20260901122524 70 341 10.0 24.0 0.00 0.00 0.00 98 901.3
20260901122226 70 6 8.0 22.0 0.00 0.00 0.00 98 901.5
20260901122024 70 337 10.0 22.0 0.00 0.00 0.00 98 901.4
20260901121625 70 25 2.0 21.0 0.00 0.00 0.00 99 901.5
20260901121524 70 23 9.0 23.0 0.00 0.00 0.00 98 901.3
20260901121026 70 360 12.0 23.0 0.00 0.00 0.00 98 901.1
20260901121024 70 353 12.0 23.0 0.00 0.00 0.00 98 901.2
20260901120524 70 16 8.0 20.0 0.00 0.00 0.00 99 901.4
20260901120425 70 353 7.0 20.0 0.00 0.00 0.00 99 901.3
20260901120024 70 330 2.0 17.0 0.00 0.00 0.00 99 901.4
20260901115825 70 93 8.0 19.0 0.00 0.00 0.00 99 901.3
20260901115524 70 12 8.0 19.0 0.00 0.00 0.00 98 901.4
20260901115225 70 348 9.0 19.0 0.00 0.00 0.00 98 901.2
20260901114625 70 17 1.0 10.0 0.00 0.00 0.00 99 901.3
20260901114025 70 54 7.0 16.0 0.00 0.00 0.00 98 901.1
20260901113524 70 79 4.0 14.0 0.00 0.00 0.00 99 901.1
20260901113425 70 51 1.0 7.0 0.00 0.00 0.00 99 901.1
20260901113024 70 37 7.0 17.0 0.00 0.00 0.00 98 901.0
20260901112825 70 12 6.0 17.0 0.00 0.00 0.00 98 901.1
20260901112524 70 7 7.0 15.0 0.00 0.00 0.00 98 901.1
20260901112225 70 44 5.0 15.0 0.00 0.00 0.00 98 901.1
20260901112024 70 29 6.0 15.0 0.00 0.00 0.00 98 901.2
20260901111625 70 58 7.0 19.0 0.00 0.00 0.00 98 901.1
20260901111523 70 44 8.0 19.0 0.00 0.00 0.00 98 901.0
20260901111025 70 6 8.0 19.0 0.00 0.00 0.00 98 901.1
20260901110524 70 28 1.0 13.0 0.00 0.00 0.00 99 901.1
20260901110425 70 11 9.0 17.0 0.00 0.00 0.00 98 901.2
20260901110024 70 42 8.0 16.0 0.00 0.00 0.00 98 901.1
20260901105825 70 4 1.0 9.0 0.00 0.00 0.00 99 901.2
20260901105524 70 29 9.0 20.0 0.00 0.00 0.00 99 901.0
20260901105225 70 10 7.0 17.0 0.00 0.00 0.00 99 901.2
20260901105023 70 25 7.0 17.0 0.00 0.00 0.00 99 901.1
20260901104625 70 37 9.0 17.0 0.00 0.00 0.00 99 901.1
20260901104523 70 34 8.0 15.0 0.00 0.00 0.00 99 901.1
20260901104025 70 48 7.0 13.0 0.00 0.00 0.00 99 901.2
20260901103524 70 59 4.0 12.0 0.00 0.00 0.00 99 901.2
20260901103425 70 28 4.0 12.0 0.00 0.00 0.00 99 901.2
20260901103023 70 60 4.0 15.0 0.01 0.01 0.00 99 901.1
20260901102825 70 348 8.0 15.0 0.00 0.00 0.00 99 901.1
20260901102523 70 52 6.0 15.0 0.00 0.00 0.00 99 901.1
20260901102224 70 46 7.0 13.0 0.00 0.00 0.00 99 901.1
20260901102023 70 22 5.0 8.0 0.00 0.00 0.00 99 901.2
20260901101624 69 32 0.0 10.0 0.00 0.00 0.00 99 901.1
20260901101523 70 12 3.0 15.0 0.00 0.00 0.00 98 901.1
20260901101025 70 355 6.0 15.0 0.00 0.00 0.00 98 901.1
20260901101023 70 9 6.0 15.0 0.00 0.00 0.00 98 901.0
20260901100523 70 31 8.0 14.0 0.00 0.00 0.00 98 901.0
20260901100424 70 51 7.0 13.0 0.00 0.00 0.00 98 901.1
20260901100023 70 47 6.0 15.0 0.00 0.00 0.00 98 901.0
20260901095824 70 36 5.0 15.0 0.00 0.00 0.00 99 901.0
20260901095523 70 41 7.0 15.0 0.00 0.00 0.00 98 900.9
20260901095225 70 38 8.0 15.0 0.00 0.00 0.00 98 900.9
20260901095023 70 35 8.0 14.0 0.00 0.00 0.00 99 900.8
20260901094624 70 47 4.0 12.0 0.00 0.00 0.00 99 900.9
20260901094024 70 39 3.0 14.0 0.00 0.00 0.00 99 900.8
20260901093523 71 60 8.0 13.0 0.00 0.00 0.00 99 900.9
20260901093424 71 11 8.0 13.0 0.00 0.00 0.00 99 900.9
20260901093023 71 39 9.0 13.0 0.00 0.00 0.00 99 900.9
20260901092824 71 43 5.0 13.0 0.00 0.00 0.00 99 900.9
20260901092523 71 63 6.0 10.0 0.00 0.00 0.00 99 900.9
20260901092224 71 74 5.0 11.0 0.00 0.00 0.00 99 900.8
20260901092025 71 48 0.0 0.0 0.00 0.00 0.00 99 900.8
20260901091624 71 57 9.0 14.0 0.00 0.00 0.00 99 900.7
20260901091523 71 47 9.0 14.0 0.00 0.00 0.00 99 900.7
20260901091024 71 41 6.0 13.0 0.00 0.00 0.00 99 900.8
20260901090523 71 62 7.0 11.0 0.00 0.00 0.00 99 900.8
20260901090424 71 22 5.0 11.0 0.00 0.00 0.00 99 900.8
20260901090023 71 51 9.0 12.0 0.00 0.00 0.00 99 900.8
20260901085824 71 47 0.0 10.0 0.00 0.00 0.00 99 900.8
20260901085523 71 51 9.0 15.0 0.00 0.00 0.00 99 900.7
20260901085224 71 18 10.0 15.0 0.00 0.00 0.00 99 900.6
20260901085022 71 66 10.0 15.0 0.00 0.00 0.00 99 900.7
20260901084624 71 45 10.0 16.0 0.00 0.00 0.00 99 900.7
20260901084522 71 38 10.0 16.0 0.00 0.00 0.00 99 900.6
20260901084024 71 65 10.0 16.0 0.00 0.00 0.00 99 900.6
20260901084022 71 40 10.0 16.0 0.00 0.00 0.00 99 900.6
20260901083524 70 69 9.0 15.0 0.00 0.00 0.00 99 900.6
20260901083424 70 50 10.0 18.0 0.00 0.00 0.00 99 900.6
20260901083022 70 23 10.0 18.0 0.00 0.00 0.00 99 900.6
20260901082824 70 7 10.0 18.0 0.00 0.00 0.00 99 900.6
20260901082522 70 57 10.0 18.0 0.00 0.00 0.00 99 900.6
20260901082223 70 41 11.0 17.0 0.00 0.00 0.00 99 900.5
20260901082022 70 71 11.0 17.0 0.00 0.00 0.00 99 900.6
20260901081623 70 72 11.0 17.0 0.00 0.00 0.00 99 900.5
20260901081522 70 53 11.0 17.0 0.00 0.00 0.00 99 900.5
20260901080522 70 58 11.0 18.0 0.00 0.00 0.00 99 900.4
20260901080423 70 44 11.0 18.0 0.00 0.00 0.00 99 900.4
20260901080022 70 62 14.0 18.0 0.00 0.00 0.00 98 900.3
20260901075823 70 59 13.0 18.0 0.00 0.00 0.00 99 900.3
20260901075522 70 51 0.0 17.0 0.00 0.00 0.00 99 900.2
20260901075223 70 53 12.0 20.0 0.00 0.00 0.00 99 900.3
20260901075022 70 40 4.0 20.0 0.00 0.00 0.00 99 900.2
20260901074623 70 51 15.0 21.0 0.00 0.00 0.00 99 900.3
20260901074522 70 41 17.0 21.0 0.00 0.00 0.00 99 900.3
20260901074024 70 46 0.0 14.0 0.00 0.00 0.00 99 900.3
20260901073423 70 69 12.0 23.0 0.00 0.00 0.00 99 900.4
20260901072823 69 59 17.0 23.0 0.00 0.00 0.00 99 900.4
20260901072223 69 63 10.0 23.0 0.00 0.00 0.00 99 900.4
20260901072022 69 39 6.0 25.0 0.00 0.00 0.00 99 900.3
20260901071623 69 69 18.0 26.0 0.00 0.00 0.00 99 900.3
20260901070423 69 70 23.0 31.0 0.00 0.00 0.00 98 900.0
20260901065823 69 50 7.0 25.0 0.00 0.00 0.00 98 900.2
20260901065223 69 47 25.0 33.0 0.00 0.00 0.00 98 899.7
20260901064023 69 50 8.0 23.0 0.00 0.00 0.00 99 900.2
20260901063423 69 55 0.0 28.0 0.00 0.00 0.00 99 899.8
20260901063021 69 42 23.0 36.0 0.00 0.00 0.00 98 900.0
20260901062823 69 39 27.0 35.0 0.00 0.00 0.00 98 899.6
20260901062521 69 58 6.0 34.0 0.00 0.00 0.00 98 900.0
20260901062223 69 48 25.0 34.0 0.00 0.00 0.00 98 900.1
20260901062021 69 68 26.0 33.0 0.00 0.00 0.00 98 900.2
20260901061622 69 56 18.0 32.0 0.00 0.00 0.00 98 900.2
20260901061522 69 45 6.0 32.0 0.00 0.00 0.00 99 900.1
20260901061024 69 67 26.0 32.0 0.00 0.00 0.00 98 899.9
20260901060521 69 47 11.0 32.0 0.00 0.00 0.00 98 900.1
20260901060422 69 35 30.0 37.0 0.01 0.01 0.00 98 900.0
20260901060021 69 45 25.0 34.0 0.00 0.00 0.00 98 900.1
20260901055822 69 61 26.0 34.0 0.00 0.00 0.00 98 900.3
20260901055521 69 64 15.0 29.0 0.00 0.00 0.00 98 900.1
20260901055222 69 56 26.0 34.0 0.00 0.00 0.00 98 900.4
20260901055021 69 64 22.0 30.0 0.00 0.00 0.00 98 900.5
20260901054622 69 56 25.0 30.0 0.00 0.00 0.00 98 900.2
20260901054521 69 32 15.0 30.0 0.00 0.00 0.00 98 900.0
20260901054023 69 45 28.0 36.0 0.00 0.00 0.00 98 900.4
20260901054021 69 50 27.0 36.0 0.00 0.00 0.00 98 900.3
20260901053521 69 64 5.0 29.0 0.00 0.00 0.00 99 900.7
20260901053422 69 45 27.0 36.0 0.10 0.10 0.00 98 900.3
20260901053021 69 51 26.0 35.0 0.10 0.10 0.00 98 900.5
20260901052822 69 47 25.0 35.0 0.09 0.09 0.00 98 900.7
20260901052521 69 50 25.0 34.0 0.09 0.09 0.00 98 900.6
20260901052222 69 55 26.0 34.0 0.09 0.09 0.00 98 900.8
20260901052021 69 58 25.0 34.0 0.09 0.09 0.00 98 900.9
20260901051622 69 63 26.0 34.0 0.09 0.09 0.00 98 901.1
20260901051022 69 43 25.0 33.0 0.07 0.07 0.00 98 900.9
20260901050521 69 58 25.0 35.0 0.07 0.07 0.00 99 901.1
20260901050422 69 60 24.0 35.0 0.07 0.07 0.00 99 901.1
20260901050021 69 72 26.0 36.0 0.06 0.06 0.00 99 901.2
20260901045822 69 54 25.0 36.0 0.06 0.06 0.00 99 901.1
20260901045222 69 62 26.0 36.0 0.03 0.03 0.00 99 901.5
20260901044622 69 70 26.0 36.0 0.00 0.00 0.00 99 900.9
20260901044521 69 60 13.0 36.0 0.00 0.00 0.00 99 901.4
20260901040520 69 55 27.0 36.0 0.03 0.03 0.00 98 901.1
20260901040421 69 52 22.0 35.0 0.02 0.02 0.00 98 901.3
20260901035821 69 80 25.0 34.0 0.05 0.05 0.00 98 901.6
20260901035021 69 49 6.0 32.0 0.00 0.00 0.00 99 901.5
20260901034621 69 64 26.0 35.0 0.03 0.03 0.00 98 901.7
20260901034520 69 45 23.0 29.0 0.02 0.02 0.00 98 901.4
20260901034022 69 52 23.0 33.0 0.07 0.07 0.00 98 901.7
20260901034020 69 61 23.0 33.0 0.07 0.07 0.00 98 901.7
20260901033520 69 45 25.0 33.0 0.03 0.03 0.00 98 901.7
20260901033421 69 50 23.0 33.0 0.03 0.03 0.00 98 901.7
20260901033020 69 58 6.0 26.0 0.00 0.00 0.00 98 901.8
20260901032821 69 55 25.0 32.0 0.07 0.07 0.00 98 901.8
20260901032520 69 46 26.0 32.0 0.06 0.06 0.00 98 901.7
20260901032221 69 31 22.0 29.0 0.03 0.03 0.00 98 902.0
20260901032020 69 55 23.0 29.0 0.03 0.03 0.00 98 902.0
20260901031621 69 62 20.0 28.0 0.01 0.01 0.00 98 902.0
20260901031520 69 45 18.0 28.0 0.01 0.01 0.00 98 901.9
20260901031021 69 56 20.0 28.0 0.00 0.00 0.00 99 902.1
20260901030520 69 53 21.0 26.0 0.03 0.03 0.00 98 902.1
20260901030421 69 54 20.0 26.0 0.03 0.03 0.00 98 902.1
20260901030020 69 49 17.0 24.0 0.01 0.01 0.00 98 902.3
20260901025821 69 54 11.0 22.0 0.00 0.00 0.00 98 902.4
20260901025520 69 47 19.0 24.0 0.01 0.01 0.00 98 902.2
20260901025221 69 44 10.0 22.0 0.00 0.00 0.00 98 902.3
20260901025020 69 58 12.0 24.0 0.00 0.00 0.00 98 902.4
20260901024621 69 55 16.0 24.0 0.07 0.07 0.00 98 902.3
20260901024520 69 70 16.0 24.0 0.07 0.07 0.00 98 902.4
20260901024021 69 49 17.0 24.0 0.03 0.03 0.00 98 902.4
20260901023519 70 49 18.0 22.0 0.02 0.02 0.00 98 902.3
20260901023421 70 52 17.0 22.0 0.02 0.02 0.00 98 902.3
20260901023019 70 43 18.0 22.0 0.02 0.02 0.00 98 902.3
20260901022821 70 58 15.0 22.0 0.01 0.01 0.00 98 902.3
20260901022520 69 57 4.0 20.0 0.00 0.00 0.00 98 902.4
20260901022221 70 45 15.0 25.0 0.02 0.02 0.00 98 902.4
20260901022020 69 62 17.0 25.0 0.01 0.01 0.00 98 902.4
20260901021621 69 58 15.0 22.0 0.01 0.01 0.00 98 902.3
20260901021519 69 51 15.0 22.0 0.01 0.01 0.00 98 902.4
20260901021021 69 56 16.0 22.0 0.00 0.00 0.00 98 902.3
20260901021019 69 49 16.0 22.0 0.00 0.00 0.00 98 902.3
20260901020519 69 82 14.0 20.0 0.00 0.00 0.00 98 902.3
20260901020421 69 34 14.0 20.0 0.00 0.00 0.00 98 902.3
20260901015519 70 45 5.0 17.0 0.00 0.00 0.00 98 902.3
20260901015220 69 57 16.0 21.0 0.00 0.00 0.00 98 902.2
20260901015019 69 45 16.0 21.0 0.00 0.00 0.00 98 902.2
20260901014620 70 31 16.0 20.0 0.00 0.00 0.00 98 902.3
20260901014520 70 73 16.0 20.0 0.00 0.00 0.00 98 902.4
20260901014021 70 52 15.0 19.0 0.00 0.00 0.00 98 902.4
20260901014019 70 52 15.0 19.0 0.00 0.00 0.00 98 902.3
20260901013519 69 33 1.0 15.0 0.00 0.00 0.00 98 902.4
20260901013420 70 59 14.0 20.0 0.00 0.00 0.00 98 902.3
20260901013019 70 54 14.0 20.0 0.00 0.00 0.00 98 902.4
20260901012820 69 66 15.0 20.0 0.00 0.00 0.00 98 902.5
20260901012519 69 58 14.0 19.0 0.00 0.00 0.00 98 902.4
20260901012220 69 49 14.0 18.0 0.00 0.00 0.00 98 902.5
20260901012019 69 61 5.0 17.0 0.00 0.00 0.00 98 902.5
20260901011620 70 63 14.0 19.0 0.01 0.01 0.00 98 902.5
20260901011519 70 56 12.0 19.0 0.01 0.01 0.00 98 902.6
20260901011021 70 39 14.0 18.0 0.00 0.00 0.00 98 902.6
20260901011019 70 60 14.0 18.0 0.00 0.00 0.00 98 902.6
20260901010519 70 56 12.0 17.0 0.01 0.01 0.00 98 902.7
20260901010420 70 50 11.0 17.0 0.01 0.01 0.00 98 902.7
20260901010019 69 51 12.0 15.0 0.01 0.01 0.00 98 902.6
20260901005820 70 80 10.0 15.0 0.01 0.01 0.00 98 902.7
20260901005519 70 55 9.0 15.0 0.00 0.00 0.00 98 902.7
20260901005220 70 55 9.0 14.0 0.00 0.00 0.00 98 902.7
20260901005019 69 59 10.0 13.0 0.00 0.00 0.00 98 902.7